TimeMST,TemperatureF,Dew PointF,Humidity,Sea Level PressureIn,VisibilityMPH,Wind Direction,Wind SpeedMPH,Gust SpeedMPH,PrecipitationIn,Events,Conditions,WindDirDegrees,DateUTC
12:53 AM,24.1,18.0,77,30.31,10.0,WSW,10.4,-,N/A,,Overcast,240,2013-02-16 07:53:00
1:53 AM,24.1,19.0,81,30.28,10.0,SW,5.8,-,N/A,,Mostly Cloudy,230,2013-02-16 08:53:00
2:53 AM,26.1,19.0,75,30.24,10.0,SW,6.9,-,N/A,,Overcast,220,2013-02-16 09:53:00
3:53 AM,27.0,19.0,72,30.20,10.0,WSW,9.2,-,N/A,,Overcast,240,2013-02-16 10:53:00
4:53 AM,28.0,19.0,69,30.18,10.0,WSW,11.5,-,N/A,,Overcast,250,2013-02-16 11:53:00
5:53 AM,30.0,19.0,64,30.17,10.0,West,13.8,20.7,N/A,,Overcast,270,2013-02-16 12:53:00
6:53 AM,33.1,19.9,59,30.16,10.0,West,17.3,-,N/A,,Overcast,280,2013-02-16 13:53:00
7:53 AM,35.1,21.9,59,30.15,10.0,West,16.1,-,N/A,,Partly Cloudy,280,2013-02-16 14:53:00
8:53 AM,43.0,21.9,43,30.13,10.0,NW,16.1,23.0,N/A,,Scattered Clouds,310,2013-02-16 15:53:00
9:53 AM,48.9,21.9,35,30.12,10.0,WNW,24.2,32.2,N/A,,Clear,300,2013-02-16 16:53:00
10:53 AM,51.1,21.9,32,30.10,10.0,NW,24.2,31.1,N/A,,Clear,320,2013-02-16 17:53:00
11:53 AM,55.0,23.0,29,30.07,10.0,NW,21.9,32.2,N/A,,Clear,310,2013-02-16 18:53:00
12:53 PM,55.9,24.1,29,30.05,10.0,NW,21.9,33.4,N/A,,Clear,310,2013-02-16 19:53:00
1:53 PM,55.9,23.0,28,30.04,10.0,WNW,20.7,29.9,N/A,,Clear,300,2013-02-16 20:53:00
2:53 PM,55.9,23.0,28,30.03,10.0,NNW,19.6,26.5,N/A,,Clear,330,2013-02-16 21:53:00
3:53 PM,55.0,21.9,28,30.02,10.0,NW,15.0,-,N/A,,Clear,320,2013-02-16 22:53:00
4:53 PM,51.1,23.0,33,30.02,10.0,NW,9.2,-,N/A,,Clear,320,2013-02-16 23:53:00
5:53 PM,44.1,21.9,42,30.03,10.0,WNW,6.9,-,N/A,,Clear,290,2013-02-17 00:53:00
6:53 PM,42.1,21.0,43,30.01,10.0,West,5.8,-,N/A,,Clear,280,2013-02-17 01:53:00
7:53 PM,37.0,21.9,54,30.02,10.0,West,9.2,-,N/A,,Clear,270,2013-02-17 02:53:00
8:53 PM,36.0,21.9,57,30.00,10.0,WNW,9.2,-,N/A,,Clear,290,2013-02-17 03:53:00
9:53 PM,33.1,21.9,64,29.99,10.0,West,8.1,-,N/A,,Clear,280,2013-02-17 04:53:00
10:53 PM,30.0,21.0,69,29.99,10.0,WSW,9.2,-,N/A,,Clear,250,2013-02-17 05:53:00
11:53 PM,32.0,21.9,66,29.96,10.0,WNW,8.1,-,N/A,,Clear,290,2013-02-17 06:53:00